RYR7NT EKCH-EGSS

Flight info

Callsign RYR7NT
Flight time 1h 27m
Altitude 36000
Route LANGO DCT KESUR DCT LONAM DCT BINBO DCT AKOKO N866 KUBAX Z150 MEGEL
Aircraft B738/M-SDE2E3FGHIRWXY/LB1

Departure

Time 2026-05-03 20:49
Airport Copenhagen Kastrup Airport (EKCH)

Arrival

Time 2026-05-03 22:17
Airport London Stansted Airport (EGSS)
Time Latitude Longitude Altitude Speed Heading
2026-05-03 20:27 55.62529 12.65837 23 ft 0 kts 359°
2026-05-03 20:38 55.62512 12.65838 23 ft 4 kts 359°
2026-05-03 20:38 55.62485 12.65838 23 ft 4 kts 359°
2026-05-03 20:38 55.62462 12.65840 27 ft 4 kts 333°
2026-05-03 20:38 55.62449 12.65870 26 ft 4 kts 277°
2026-05-03 20:39 55.62448 12.65918 26 ft 4 kts 263°
2026-05-03 20:39 55.62452 12.65965 25 ft 4 kts 262°
2026-05-03 20:39 55.62455 12.66011 23 ft 4 kts 255°
2026-05-03 20:39 55.62467 12.66050 24 ft 4 kts 218°
2026-05-03 20:40 55.62490 12.66074 24 ft 4 kts 207°
2026-05-03 20:40 55.62511 12.66099 26 ft 4 kts 220°
2026-05-03 20:40 55.62533 12.66124 27 ft 4 kts 200°
2026-05-03 20:40 55.62559 12.66135 23 ft 4 kts 182°
2026-05-03 20:41 55.62582 12.66135 25 ft 1 kts 176°
2026-05-03 20:41 55.62583 12.66135 25 ft 1 kts 176°
2026-05-03 20:43 55.62565 12.66136 23 ft 6 kts 177°
2026-05-03 20:43 55.62507 12.66094 24 ft 12 kts 220°
2026-05-03 20:44 55.62449 12.65968 23 ft 14 kts 259°
2026-05-03 20:44 55.62447 12.65801 23 ft 13 kts 269°
2026-05-03 20:44 55.62445 12.65642 23 ft 13 kts 269°
2026-05-03 20:44 55.62443 12.65486 23 ft 12 kts 269°
2026-05-03 20:45 55.62441 12.65335 23 ft 12 kts 269°
2026-05-03 20:45 55.62415 12.65207 23 ft 12 kts 200°
2026-05-03 20:45 55.62333 12.65201 23 ft 12 kts 180°
2026-05-03 20:45 55.62277 12.65118 23 ft 12 kts 259°
2026-05-03 20:46 55.62295 12.65026 24 ft 14 kts 304°
2026-05-03 20:46 55.62355 12.64849 23 ft 18 kts 277°
2026-05-03 20:46 55.62313 12.64649 23 ft 17 kts 246°
2026-05-03 20:46 55.62253 12.64413 23 ft 13 kts 242°
2026-05-03 20:47 55.62180 12.64326 21 ft 13 kts 205°
2026-05-03 20:47 55.62095 12.64255 23 ft 16 kts 205°
2026-05-03 20:47 55.62018 12.64191 24 ft 20 kts 205°
2026-05-03 20:47 55.61895 12.64087 23 ft 20 kts 205°
2026-05-03 20:48 55.61761 12.64079 23 ft 19 kts 176°
2026-05-03 20:48 55.61650 12.64091 26 ft 10 kts 186°
2026-05-03 20:48 55.61616 12.64055 28 ft 0 kts 221°
2026-05-03 20:48 55.61612 12.64048 27 ft 7 kts 221°
2026-05-03 20:49 55.61506 12.63884 28 ft 55 kts 221°
2026-05-03 20:49 55.61033 12.63154 27 ft 123 kts 221°
2026-05-03 20:49 55.60251 12.61929 108 ft 170 kts 223°
2026-05-03 20:49 55.59338 12.60479 721 ft 183 kts 221°
2026-05-03 20:50 55.58374 12.58985 1612 ft 178 kts 218°
2026-05-03 20:50 55.57435 12.57584 2445 ft 182 kts 217°
2026-05-03 20:50 55.56464 12.55959 2679 ft 209 kts 232°
2026-05-03 20:50 55.55908 12.53436 2956 ft 228 kts 245°
2026-05-03 20:51 55.55128 12.51008 3470 ft 231 kts 232°
2026-05-03 20:51 55.54197 12.48560 3785 ft 246 kts 233°
2026-05-03 20:51 55.53256 12.46019 4612 ft 246 kts 234°
2026-05-03 20:51 55.52335 12.43493 5538 ft 244 kts 235°
2026-05-03 20:52 55.51421 12.40961 6366 ft 245 kts 235°
2026-05-03 20:52 55.50502 12.38398 7104 ft 249 kts 236°
2026-05-03 20:52 55.49576 12.35804 7883 ft 251 kts 236°
2026-05-03 20:52 55.48660 12.33228 8675 ft 252 kts 236°
2026-05-03 20:53 55.47729 12.30602 9465 ft 255 kts 236°
2026-05-03 20:53 55.46776 12.27914 10095 ft 262 kts 236°
2026-05-03 20:53 55.45768 12.25074 10279 ft 285 kts 236°
2026-05-03 20:53 55.44679 12.22009 10447 ft 307 kts 236°
2026-05-03 20:54 55.43509 12.18713 10608 ft 327 kts 236°
2026-05-03 20:54 55.41034 12.11735 11632 ft 341 kts 237°
2026-05-03 20:54 55.39771 12.08179 12341 ft 344 kts 237°
2026-05-03 20:55 55.38498 12.04598 13039 ft 347 kts 237°
2026-05-03 20:55 55.37226 12.01030 13710 ft 351 kts 237°
2026-05-03 20:55 55.35924 11.97381 14356 ft 354 kts 237°
2026-05-03 20:55 55.34607 11.93696 14975 ft 358 kts 237°
2026-05-03 20:56 55.33275 11.89976 15610 ft 362 kts 237°
2026-05-03 20:56 55.31928 11.86217 16233 ft 365 kts 237°
2026-05-03 20:56 55.30566 11.82424 16861 ft 369 kts 237°
2026-05-03 20:56 55.29189 11.78593 17468 ft 373 kts 237°
2026-05-03 20:57 55.27798 11.74728 18067 ft 377 kts 237°
2026-05-03 20:57 55.26388 11.70822 18599 ft 381 kts 237°
2026-05-03 20:57 55.24982 11.66934 19115 ft 384 kts 237°
2026-05-03 20:57 55.23536 11.62983 19643 ft 387 kts 236°
2026-05-03 20:58 55.22068 11.59003 20136 ft 391 kts 236°
2026-05-03 20:58 55.20587 11.55001 20645 ft 394 kts 236°
2026-05-03 20:58 55.19091 11.50964 21163 ft 396 kts 236°
2026-05-03 20:58 55.17585 11.46902 21658 ft 399 kts 236°
2026-05-03 20:59 55.16068 11.42815 22135 ft 402 kts 236°
2026-05-03 20:59 55.14542 11.38705 22601 ft 405 kts 236°
2026-05-03 20:59 55.13001 11.34563 23061 ft 408 kts 236°
2026-05-03 20:59 55.11469 11.30450 23492 ft 411 kts 236°
2026-05-03 21:00 55.09905 11.26259 23888 ft 413 kts 236°
2026-05-03 21:00 55.08842 11.23416 24157 ft 414 kts 236°
2026-05-03 21:00 55.06753 11.17833 24663 ft 416 kts 236°
2026-05-03 21:00 55.05163 11.13593 25025 ft 419 kts 236°
2026-05-03 21:01 55.03563 11.09333 25377 ft 421 kts 236°
2026-05-03 21:01 55.01953 11.05054 25705 ft 423 kts 236°
2026-05-03 21:01 55.00335 11.00760 26032 ft 426 kts 236°
2026-05-03 21:01 54.98705 10.96441 26382 ft 428 kts 236°
2026-05-03 21:02 54.97092 10.92173 26851 ft 426 kts 235°
2026-05-03 21:02 54.95471 10.87855 27278 ft 426 kts 237°
2026-05-03 21:02 54.94264 10.83119 27517 ft 435 kts 252°
2026-05-03 21:02 54.93676 10.77924 27831 ft 439 kts 257°
2026-05-03 21:03 54.93160 10.72678 28187 ft 440 kts 257°
2026-05-03 21:03 54.92643 10.67448 28650 ft 438 kts 256°
2026-05-03 21:03 54.92118 10.62253 29157 ft 436 kts 256°
2026-05-03 21:03 54.91583 10.57086 29648 ft 433 kts 256°
2026-05-03 21:04 54.91040 10.51945 30072 ft 432 kts 255°
2026-05-03 21:04 54.90491 10.46822 30442 ft 431 kts 255°
2026-05-03 21:04 54.89947 10.41778 30830 ft 429 kts 255°
2026-05-03 21:04 54.89398 10.36707 31227 ft 427 kts 255°
2026-05-03 21:05 54.88848 10.31657 31608 ft 425 kts 255°
2026-05-03 21:05 54.88297 10.26611 31983 ft 424 kts 255°
2026-05-03 21:05 54.87746 10.21592 32333 ft 423 kts 255°
2026-05-03 21:05 54.87196 10.16591 32717 ft 421 kts 255°
2026-05-03 21:06 54.86646 10.11608 33091 ft 419 kts 255°
2026-05-03 21:06 54.86096 10.06648 33430 ft 419 kts 255°
2026-05-03 21:06 54.85544 10.01688 33775 ft 417 kts 255°
2026-05-03 21:06 54.84993 9.96748 34041 ft 417 kts 255°
2026-05-03 21:07 54.84445 9.91866 34205 ft 419 kts 255°
2026-05-03 21:07 54.83878 9.86898 34433 ft 419 kts 254°
2026-05-03 21:07 54.83235 9.81995 34716 ft 417 kts 253°
2026-05-03 21:07 54.82541 9.77119 35015 ft 416 kts 252°
2026-05-03 21:08 54.81831 9.72265 35258 ft 415 kts 252°
2026-05-03 21:08 54.81116 9.67405 35445 ft 417 kts 252°
2026-05-03 21:08 54.80404 9.62533 35647 ft 417 kts 252°
2026-05-03 21:08 54.79704 9.57716 35880 ft 417 kts 252°
2026-05-03 21:09 54.78999 9.52850 36095 ft 417 kts 252°
2026-05-03 21:09 54.78294 9.47967 36296 ft 418 kts 253°
2026-05-03 21:09 54.77589 9.43083 36497 ft 418 kts 253°
2026-05-03 21:09 54.76881 9.38192 36709 ft 418 kts 253°
2026-05-03 21:10 54.76173 9.33305 36911 ft 419 kts 253°
2026-05-03 21:10 54.75461 9.28415 37093 ft 419 kts 253°
2026-05-03 21:10 54.74748 9.23523 37298 ft 419 kts 253°
2026-05-03 21:10 54.74031 9.18631 37514 ft 419 kts 253°
2026-05-03 21:11 54.73323 9.13806 37683 ft 420 kts 253°
2026-05-03 21:11 54.72601 9.08905 37818 ft 421 kts 253°
2026-05-03 21:11 54.71142 8.99049 37850 ft 423 kts 253°
2026-05-03 21:12 54.69680 8.89228 37831 ft 420 kts 253°
2026-05-03 21:12 54.68223 8.79501 37817 ft 417 kts 253°
2026-05-03 21:13 54.66775 8.69892 37844 ft 415 kts 253°
2026-05-03 21:13 54.65311 8.60240 37859 ft 416 kts 253°
2026-05-03 21:14 54.63837 8.50580 37855 ft 416 kts 253°
2026-05-03 21:14 54.62353 8.40914 37856 ft 417 kts 253°
2026-05-03 21:15 54.60858 8.31231 37861 ft 418 kts 253°
2026-05-03 21:15 54.59362 8.21597 37863 ft 419 kts 253°
2026-05-03 21:16 54.57843 8.11869 37863 ft 420 kts 253°
2026-05-03 21:16 54.56315 8.02149 37869 ft 420 kts 252°
2026-05-03 21:17 54.55042 7.94085 37868 ft 419 kts 252°
2026-05-03 21:17 54.53262 7.82875 37865 ft 417 kts 252°
2026-05-03 21:18 54.51727 7.73274 37868 ft 415 kts 252°
2026-05-03 21:18 54.50188 7.63700 37869 ft 415 kts 252°
2026-05-03 21:19 54.48642 7.54142 37876 ft 415 kts 252°
2026-05-03 21:19 54.47097 7.44641 37878 ft 417 kts 252°
2026-05-03 21:20 54.45524 7.35021 37887 ft 419 kts 252°
2026-05-03 21:20 54.43932 7.25345 37886 ft 422 kts 252°
2026-05-03 21:21 54.42323 7.15612 37891 ft 425 kts 252°
2026-05-03 21:21 54.40696 7.05829 37888 ft 427 kts 252°
2026-05-03 21:22 54.39066 6.96076 37890 ft 428 kts 252°
2026-05-03 21:22 54.37414 6.86251 37892 ft 429 kts 252°
2026-05-03 21:23 54.35754 6.76437 37891 ft 429 kts 252°
2026-05-03 21:23 54.34087 6.66634 37890 ft 427 kts 252°
2026-05-03 21:24 54.32311 6.57078 37888 ft 420 kts 243°
2026-05-03 21:24 54.29651 6.48233 37887 ft 416 kts 241°
2026-05-03 21:25 54.26949 6.39497 37899 ft 415 kts 241°
2026-05-03 21:25 54.24254 6.30699 37915 ft 421 kts 242°
2026-05-03 21:26 54.21532 6.21769 37909 ft 426 kts 242°
2026-05-03 21:26 54.18788 6.12770 37912 ft 428 kts 242°
2026-05-03 21:27 54.16046 6.03805 37901 ft 429 kts 242°
2026-05-03 21:27 54.13289 5.94829 37892 ft 424 kts 242°
2026-05-03 21:28 54.10567 5.85998 37903 ft 419 kts 241°
2026-05-03 21:28 54.07834 5.77168 37919 ft 424 kts 241°
2026-05-03 21:29 54.05057 5.68231 37919 ft 430 kts 241°
2026-05-03 21:29 54.02259 5.59254 37915 ft 434 kts 241°
2026-05-03 21:30 53.99416 5.50169 37910 ft 436 kts 241°
2026-05-03 21:30 53.96561 5.41079 37910 ft 436 kts 241°
2026-05-03 21:31 53.93695 5.31991 37904 ft 437 kts 241°
2026-05-03 21:31 53.90843 5.22980 37928 ft 436 kts 241°
2026-05-03 21:32 53.87973 5.13946 37895 ft 434 kts 240°
2026-05-03 21:32 53.85118 5.04991 37912 ft 430 kts 240°
2026-05-03 21:33 53.82273 4.96102 37922 ft 429 kts 240°
2026-05-03 21:33 53.79445 4.87299 37923 ft 428 kts 240°
2026-05-03 21:34 53.76592 4.78450 37921 ft 429 kts 240°
2026-05-03 21:34 53.73729 4.69602 37929 ft 429 kts 240°
2026-05-03 21:35 53.70857 4.60758 37926 ft 430 kts 240°
2026-05-03 21:35 53.67970 4.51897 37926 ft 431 kts 240°
2026-05-03 21:36 53.65089 4.43091 37914 ft 432 kts 240°
2026-05-03 21:36 53.62178 4.34223 37924 ft 433 kts 240°
2026-05-03 21:37 53.59258 4.25359 37922 ft 433 kts 240°
2026-05-03 21:37 53.56327 4.16498 37924 ft 433 kts 240°
2026-05-03 21:38 53.53390 4.07647 37921 ft 434 kts 240°
2026-05-03 21:38 53.50455 3.98836 37917 ft 435 kts 240°
2026-05-03 21:39 53.47497 3.89987 37924 ft 435 kts 239°
2026-05-03 21:39 53.44525 3.81126 37924 ft 435 kts 239°
2026-05-03 21:40 53.41551 3.72292 37926 ft 435 kts 239°
2026-05-03 21:40 53.38564 3.63451 37930 ft 434 kts 239°
2026-05-03 21:41 53.35654 3.54865 37921 ft 415 kts 239°
2026-05-03 21:41 53.32812 3.46511 37927 ft 411 kts 239°
2026-05-03 21:42 53.29997 3.38263 37926 ft 412 kts 239°
2026-05-03 21:42 53.27135 3.29905 37928 ft 416 kts 239°
2026-05-03 21:43 53.23830 3.21971 37915 ft 418 kts 225°
2026-05-03 21:43 53.19185 3.16125 37899 ft 421 kts 208°
2026-05-03 21:44 53.13918 3.11805 37910 ft 422 kts 207°
2026-05-03 21:44 53.08673 3.07429 37904 ft 422 kts 208°
2026-05-03 21:45 53.03474 3.03066 37926 ft 421 kts 208°
2026-05-03 21:45 52.98254 2.98699 37914 ft 419 kts 208°
2026-05-03 21:46 52.95657 2.96504 37722 ft 420 kts 210°
2026-05-03 21:46 52.93213 2.93851 37235 ft 418 kts 219°
2026-05-03 21:46 52.91040 2.90681 36703 ft 416 kts 223°
2026-05-03 21:46 52.88923 2.87438 36167 ft 413 kts 223°
2026-05-03 21:47 52.86821 2.84216 35579 ft 412 kts 222°
2026-05-03 21:47 52.84715 2.81005 34960 ft 411 kts 222°
2026-05-03 21:47 52.82606 2.77809 34345 ft 411 kts 221°
2026-05-03 21:47 52.80494 2.74628 33688 ft 411 kts 221°
2026-05-03 21:48 52.78377 2.71452 32949 ft 411 kts 221°
2026-05-03 21:48 52.76257 2.68279 32281 ft 411 kts 221°
2026-05-03 21:48 52.74168 2.65157 31618 ft 411 kts 221°
2026-05-03 21:48 52.72048 2.61996 30932 ft 410 kts 221°
2026-05-03 21:49 52.69949 2.58868 30472 ft 404 kts 221°
2026-05-03 21:49 52.67871 2.55776 29972 ft 401 kts 221°
2026-05-03 21:49 52.65792 2.52686 29431 ft 405 kts 221°
2026-05-03 21:49 52.63686 2.49556 28950 ft 411 kts 221°
2026-05-03 21:50 52.61550 2.46391 28408 ft 415 kts 221°
2026-05-03 21:50 52.59402 2.43213 27873 ft 415 kts 221°
2026-05-03 21:50 52.57256 2.40040 27370 ft 416 kts 222°
2026-05-03 21:50 52.55093 2.36845 26841 ft 419 kts 222°
2026-05-03 21:51 52.52914 2.33633 26311 ft 422 kts 222°
2026-05-03 21:51 52.50757 2.30460 26006 ft 423 kts 222°
2026-05-03 21:51 52.48557 2.27244 25935 ft 425 kts 221°
2026-05-03 21:51 52.46380 2.24073 25903 ft 409 kts 221°
2026-05-03 21:52 52.44297 2.21043 25887 ft 391 kts 221°
2026-05-03 21:52 52.42307 2.18150 25890 ft 374 kts 221°
2026-05-03 21:52 52.40384 2.15355 25556 ft 368 kts 221°
2026-05-03 21:52 52.38483 2.12595 25196 ft 362 kts 222°
2026-05-03 21:53 52.36607 2.09876 24839 ft 359 kts 222°
2026-05-03 21:53 52.34894 2.06937 24450 ft 356 kts 235°
2026-05-03 21:53 52.33749 2.03366 24118 ft 354 kts 245°
2026-05-03 21:53 52.32803 1.99673 23764 ft 351 kts 246°
2026-05-03 21:54 52.31894 1.96042 23424 ft 349 kts 246°
2026-05-03 21:54 52.30967 1.92385 23010 ft 347 kts 246°
2026-05-03 21:54 52.30027 1.88752 22599 ft 349 kts 245°
2026-05-03 21:54 52.29071 1.85103 22142 ft 350 kts 245°
2026-05-03 21:55 52.28108 1.81442 21625 ft 351 kts 245°
2026-05-03 21:55 52.27135 1.77777 21103 ft 352 kts 245°
2026-05-03 21:55 52.26159 1.74113 20569 ft 352 kts 245°
2026-05-03 21:55 52.25183 1.70454 20096 ft 351 kts 245°
2026-05-03 21:56 52.24223 1.66858 19945 ft 341 kts 245°
2026-05-03 21:56 52.23279 1.63325 19695 ft 341 kts 245°
2026-05-03 21:56 52.22327 1.59771 19310 ft 342 kts 245°
2026-05-03 21:56 52.21375 1.56220 18936 ft 340 kts 245°
2026-05-03 21:57 52.20430 1.52699 18576 ft 340 kts 245°
2026-05-03 21:57 52.19481 1.49169 18226 ft 339 kts 245°
2026-05-03 21:57 52.18536 1.45657 17837 ft 338 kts 245°
2026-05-03 21:57 52.17607 1.42209 17432 ft 335 kts 245°
2026-05-03 21:58 52.16674 1.38751 17038 ft 332 kts 245°
2026-05-03 21:58 52.15745 1.35314 16651 ft 330 kts 245°
2026-05-03 21:58 52.14824 1.31910 16272 ft 327 kts 245°
2026-05-03 21:58 52.13911 1.28539 15880 ft 325 kts 245°
2026-05-03 21:59 52.12998 1.25176 15507 ft 324 kts 245°
2026-05-03 21:59 52.12089 1.21837 15133 ft 322 kts 245°
2026-05-03 21:59 52.11303 1.18425 14758 ft 322 kts 252°
2026-05-03 21:59 52.10711 1.14925 14398 ft 321 kts 254°
2026-05-03 22:00 52.10168 1.11425 14037 ft 319 kts 255°
2026-05-03 22:00 52.09626 1.07929 13673 ft 317 kts 254°
2026-05-03 22:00 52.09080 1.04473 13267 ft 315 kts 254°
2026-05-03 22:00 52.08525 1.01038 12872 ft 313 kts 254°
2026-05-03 22:01 52.07973 0.97672 12496 ft 311 kts 254°
2026-05-03 22:01 52.07413 0.94294 12100 ft 306 kts 254°
2026-05-03 22:01 52.06863 0.90992 11703 ft 300 kts 253°
2026-05-03 22:01 52.06320 0.87751 11313 ft 294 kts 253°
2026-05-03 22:02 52.05787 0.84580 10940 ft 289 kts 253°
2026-05-03 22:02 52.05260 0.81454 10573 ft 284 kts 253°
2026-05-03 22:02 52.04741 0.78380 10202 ft 280 kts 254°
2026-05-03 22:02 52.04229 0.75354 9833 ft 276 kts 253°
2026-05-03 22:03 52.03723 0.72364 9443 ft 273 kts 253°
2026-05-03 22:03 52.03222 0.69410 9039 ft 270 kts 253°
2026-05-03 22:03 52.02726 0.66496 8651 ft 265 kts 253°
2026-05-03 22:03 52.02238 0.63635 8261 ft 261 kts 253°
2026-05-03 22:04 52.01760 0.60854 7883 ft 257 kts 252°
2026-05-03 22:04 52.01079 0.58203 7494 ft 253 kts 248°
2026-05-03 22:04 52.00801 0.55415 7128 ft 251 kts 268°
2026-05-03 22:04 52.00837 0.52602 6766 ft 249 kts 270°
2026-05-03 22:05 52.00905 0.49802 6399 ft 247 kts 271°
2026-05-03 22:05 52.00977 0.47037 6025 ft 245 kts 271°
2026-05-03 22:05 52.01047 0.44329 5994 ft 238 kts 271°
2026-05-03 22:05 52.01117 0.41648 5992 ft 238 kts 271°
2026-05-03 22:06 52.01187 0.38964 5998 ft 239 kts 271°
2026-05-03 22:06 52.01257 0.36272 5995 ft 239 kts 271°
2026-05-03 22:06 52.01327 0.33577 5989 ft 239 kts 271°
2026-05-03 22:06 52.01396 0.30920 5981 ft 238 kts 271°
2026-05-03 22:07 52.01466 0.28245 5984 ft 237 kts 271°
2026-05-03 22:07 52.01535 0.25570 5983 ft 237 kts 270°
2026-05-03 22:07 52.01258 0.22987 5983 ft 231 kts 241°
2026-05-03 22:07 52.00269 0.21097 6004 ft 213 kts 218°
2026-05-03 22:08 51.99134 0.19671 5997 ft 202 kts 216°
2026-05-03 22:08 51.98015 0.18313 6008 ft 201 kts 216°
2026-05-03 22:08 51.96892 0.16959 6014 ft 201 kts 216°
2026-05-03 22:08 51.95766 0.15606 6003 ft 202 kts 216°
2026-05-03 22:09 51.94636 0.14250 5995 ft 202 kts 216°
2026-05-03 22:09 51.93505 0.12892 5986 ft 202 kts 216°
2026-05-03 22:09 51.92379 0.11541 5984 ft 201 kts 216°
2026-05-03 22:10 51.90116 0.08831 5647 ft 208 kts 216°
2026-05-03 22:10 51.88953 0.07438 5277 ft 206 kts 216°
2026-05-03 22:10 51.87814 0.06074 4883 ft 201 kts 216°
2026-05-03 22:10 51.86703 0.04742 4492 ft 197 kts 216°
2026-05-03 22:11 51.85602 0.03423 4102 ft 197 kts 216°
2026-05-03 22:11 51.84513 0.02127 3729 ft 198 kts 216°
2026-05-03 22:11 51.83403 0.00810 3353 ft 198 kts 216°
2026-05-03 22:11 51.82285 -0.00507 2973 ft 199 kts 216°
2026-05-03 22:12 51.81158 -0.01803 2587 ft 199 kts 211°
2026-05-03 22:12 51.79839 -0.02366 2181 ft 200 kts 175°
2026-05-03 22:12 51.78594 -0.01472 2026 ft 200 kts 137°
2026-05-03 22:12 51.77641 0.00185 1983 ft 202 kts 130°
2026-05-03 22:13 51.77019 0.02173 1970 ft 200 kts 97°
2026-05-03 22:13 51.77174 0.04375 2004 ft 200 kts 75°
2026-05-03 22:13 51.77525 0.06545 1990 ft 200 kts 70°
2026-05-03 22:13 51.78327 0.08265 1992 ft 188 kts 32°
2026-05-03 22:14 51.79355 0.09491 1972 ft 181 kts 47°
2026-05-03 22:14 51.80171 0.10980 1985 ft 179 kts 43°
2026-05-03 22:14 51.81081 0.12329 2004 ft 177 kts 41°
2026-05-03 22:14 51.81984 0.13671 1905 ft 177 kts 42°
2026-05-03 22:15 51.82853 0.14979 1704 ft 163 kts 42°
2026-05-03 22:15 51.83647 0.16177 1473 ft 151 kts 41°
2026-05-03 22:15 51.84415 0.17333 1271 ft 151 kts 41°
2026-05-03 22:15 51.85179 0.18488 1067 ft 150 kts 42°
2026-05-03 22:16 51.85933 0.19649 845 ft 150 kts 41°
2026-05-03 22:16 51.86700 0.20790 626 ft 149 kts 41°
2026-05-03 22:16 51.87460 0.21921 424 ft 148 kts 41°
2026-05-03 22:16 51.88199 0.23027 330 ft 133 kts 43°
2026-05-03 22:17 51.88761 0.23870 341 ft 90 kts 43°
2026-05-03 22:17 51.89115 0.24401 355 ft 57 kts 43°
2026-05-03 22:17 51.89372 0.24788 353 ft 37 kts 43°
2026-05-03 22:17 51.89481 0.24959 353 ft 16 kts 58°
2026-05-03 22:18 51.89450 0.25094 355 ft 12 kts 135°
2026-05-03 22:18 51.89393 0.25193 357 ft 9 kts 132°
2026-05-03 22:18 51.89370 0.25234 355 ft 2 kts 133°
2026-05-03 22:18 51.89349 0.25259 353 ft 6 kts 160°
2026-05-03 22:19 51.89292 0.25224 355 ft 12 kts 222°
2026-05-03 22:19 51.89217 0.25213 358 ft 12 kts 141°
2026-05-03 22:19 51.89160 0.25278 351 ft 10 kts 147°
2026-05-03 22:19 51.89110 0.25353 355 ft 10 kts 133°
2026-05-03 22:20 51.89073 0.25417 358 ft 6 kts 133°
2026-05-03 22:20 51.89043 0.25469 351 ft 7 kts 133°
2026-05-03 22:20 51.89011 0.25503 354 ft 5 kts 180°
2026-05-03 22:20 51.88983 0.25474 357 ft 5 kts 223°
2026-05-03 22:21 51.88971 0.25456 351 ft 0 kts 221°